[[{"header":{"parameterUnit":"m.s-1","parameterCategory":1,"la1":30.2991,"la2":30.254,"lo1":-89.0895,"lo2":-89.0444,"dy":0.0017,"dx":0.0017,"nx":28,"ny":28,"refTime":"2025-12-19T03:00:00:Z","depth":0,"parameterNumber":2,"parameterNumberName":"U-component_of_WINDS"},"data":[0,0,0,0,0,0,0,0,0,0,0,0,0,0,0,0,0,0,0,0,0,0,0,0,0,0,0,0,0,0,0,0,0,0,0,0,0,0,0,0,0,0,0,0,0,0,0,0,0,0,0,0,0,0,0,0,0,0,3.0487,3.0488,0,3.0557,3.0558,3.0558,3.048,3.0477,3.0474,3.0471,3.0543,3.0548,3.0552,0,0,0,0,0,0,0,0,0,0,0,0,0,3.0287,3.0291,3.0487,3.0488,3.0489,3.0557,3.0558,3.0559,3.048,3.0477,3.0473,3.047,3.0542,3.0547,3.0553,0,0,0,0,0,0,0,0,0,0,0,0,0,3.0367,3.0292,3.0487,3.0458,3.0456,3.0557,3.0558,3.0559,3.0481,3.0477,3.0472,3.0468,3.054,3.0547,3.0554,3.0686,0,0,3.0575,3.0578,0,0,0,0,0,0,0,0,3.0363,3.0374,3.0461,3.046,3.0458,3.0505,3.0513,3.0602,3.0482,3.0472,3.0471,3.0466,3.0534,3.0541,3.0564,3.069,3.0693,3.0576,3.058,3.0583,3.0585,0,0,0,0,0,0,0,3.0357,3.0371,3.0515,3.0463,3.0461,3.0442,3.0448,3.053,3.0527,3.0472,3.0467,3.0476,3.0532,3.0558,3.0565,3.0694,3.0576,3.0582,3.0586,3.0589,3.0934,3.0939,0,0,0,0,0,0,3.0355,3.0367,3.0512,3.0517,3.0398,3.0449,3.0456,3.0495,3.0526,3.0526,3.048,3.0472,3.0548,3.0557,3.0568,3.0727,3.0583,3.059,3.0594,3.0929,3.0935,3.0941,0,0,0,0,0,0,3.0351,3.0368,3.0509,3.044,3.0457,3.0457,3.0501,3.0498,3.0523,3.0532,3.0531,3.0506,3.0545,3.0558,3.0658,3.0729,3.0593,3.0599,3.0923,3.0931,3.0938,3.1047,0,0,0,0,0,0,3.0345,3.0367,3.0418,3.0442,3.0461,3.0599,3.0505,3.0503,3.0536,3.0526,3.0556,3.0557,3.0542,3.0648,3.0665,3.0736,3.0605,3.0917,3.0927,3.0935,3.1037,3.1057,3.1074,0,0,0,0,0,3.0338,3.0445,3.0421,3.0438,3.0523,3.0603,3.0614,3.0595,3.0542,3.0593,3.0598,3.0556,3.0718,3.0659,3.0677,3.0752,3.0913,3.0924,3.0935,3.1028,3.1053,3.1074,0,0,0,0,0,0,3.0428,3.0447,3.0421,3.0538,3.057,3.0589,3.0653,3.0621,3.0668,3.0657,3.0632,3.0639,3.0746,3.0758,3.0692,3.0883,3.0807,3.0822,3.0871,3.0895,3.0913,3.0909,3.061,0,0,0,0,0,3.0462,3.0524,3.0538,3.064,3.0657,3.0653,3.0686,3.0669,3.0701,3.0714,3.0726,3.0759,3.0817,3.0856,3.091,3.1037,3.1044,3.1098,3.1116,3.1131,3.1146,3.1217,3.1242,3.0977,3.0977,3.0977,0,0,3.0531,3.055,3.0591,3.0659,3.0681,3.0748,3.0664,3.0737,3.0787,3.0725,3.0821,3.0832,3.0866,3.0981,3.1033,3.0995,3.122,3.1146,3.1158,3.1164,3.1231,3.1256,3.1278,3.0985,3.0983,3.0982,0,0,3.0693,3.0712,3.0801,3.0826,3.0861,3.0857,3.0879,3.0904,3.0909,3.1005,3.096,3.1018,3.1119,3.1146,3.1173,3.1347,3.1311,3.1365,3.1464,3.1533,3.1554,3.1572,3.1637,3.166,3.1379,3.1379,3.1379,0,3.0776,3.0874,3.0851,3.0928,3.096,3.0907,3.0998,3.1022,3.1073,3.1097,3.1054,3.118,3.1199,3.1322,3.1364,3.1387,3.1412,3.1363,3.1553,3.1571,3.1588,3.1649,3.1674,3.1386,3.1385,3.1384,3.1384,0,3.0975,3.1044,3.1111,3.1163,3.1202,3.1286,3.1276,3.1319,3.1299,3.13,3.14,3.1421,3.1479,3.1506,3.1487,3.1627,3.1603,3.1556,3.148,3.162,3.1678,3.1701,3.1395,3.1393,3.1391,3.1389,0,0,3.1196,3.1235,3.126,3.1284,3.132,3.1373,3.1454,3.1512,3.155,3.1587,3.1657,3.1743,3.1701,3.1732,3.1715,3.1776,3.1916,3.1722,3.1722,3.176,3.2074,3.2111,3.2139,3.1891,3.1895,3.1898,3.2073,0,3.136,3.1503,3.1485,3.1621,3.1686,3.1637,3.1709,3.1739,3.1742,3.1798,3.1801,3.1865,3.1803,3.1822,3.188,3.1886,3.1979,3.1873,3.1957,3.196,3.1953,3.2168,3.2207,3.237,3.2095,3.2098,3.2101,0,3.1571,3.1618,3.1761,3.1789,3.1816,3.188,3.1933,3.1986,3.202,3.2018,3.2054,3.2026,3.2109,3.2029,3.2144,3.2073,3.2106,3.2114,3.212,3.213,3.2041,3.2186,3.2421,3.2447,3.2136,3.2133,3.213,0,3.1722,3.182,3.1919,3.194,3.1974,3.2022,3.2038,3.2067,3.2104,3.2149,3.2173,3.2228,3.2258,3.2302,3.229,3.2232,3.2409,3.2327,3.2412,3.2413,3.2453,3.2451,3.27,3.247,3.247,3.2469,3.2469,0,3.1909,3.2,3.1987,3.2049,3.2149,3.2128,3.2228,3.2238,3.2265,3.2328,3.2287,3.2348,3.2327,3.2387,3.2378,3.2476,3.249,3.2492,3.2489,3.2497,3.2498,3.252,3.251,3.2476,3.2474,3.2473,3.2472,0,3.2095,3.209,3.2195,3.222,3.2228,3.2301,3.2322,3.238,3.2381,3.2461,3.2479,3.248,3.2548,3.254,3.2616,3.261,3.2733,3.2715,3.2723,3.272,3.2805,3.2799,3.308,3.3117,3.286,3.2863,3.2865,0,3.2216,3.2285,3.2317,3.2357,3.2377,3.2441,3.2479,3.246,3.2501,3.2546,3.2599,3.2664,3.2715,3.2826,3.2834,3.2892,3.2877,3.2971,3.2885,3.2892,3.2882,3.2879,3.2887,3.2989,3.2992,3.2994,3.2996,0,3.2432,3.2427,3.2483,3.2539,3.2586,3.2628,3.2667,3.2702,3.2688,3.2736,3.2806,3.2845,3.2923,3.2989,3.3044,3.3061,3.3028,3.3023,3.3046,3.3056,3.3059,3.3062,3.2772,3.3017,3.3015,3.3013,3.3012,3.3011,3.2591,3.2651,3.2684,3.2749,3.2776,3.2814,3.2871,3.2879,3.2937,3.3,3.2985,3.3064,3.3098,3.3169,3.3192,3.3254,3.3219,3.3252,3.3261,3.327,3.3282,3.3047,3.3263,3.3263,3.3262,3.3261,3.3261,0,3.2808,3.2827,3.2887,3.2943,3.2995,3.2958,3.2999,3.3045,3.3115,3.3149,3.3201,3.3282,3.3346,3.3359,3.342,3.3467,3.3454,3.3484,3.3482,3.3487,3.3307,3.3283,3.3494,3.3494,3.3494,3.3494,3.3494,3.3494,3.2927,3.3028,3.3027,3.3141,3.3159,3.3237,3.3265,3.33,3.3327,3.342,3.3473,3.3481,3.3508,3.3571,3.3628,3.363,3.3656,3.3693,3.369,3.3522,3.3499,3.3477,3.3454,3.3698,3.3698,3.3864,3.3866,3.3867]},{"header":{"parameterUnit":"m.s-1","parameterCategory":1,"la1":30.2991,"la2":30.254,"lo1":-89.0895,"lo2":-89.0444,"dy":0.0017,"dx":0.0017,"nx":28,"ny":28,"refTime":"2025-12-19T03:00:00:Z","depth":0,"parameterNumber":3,"parameterNumberName":"V-component_of_WINDS"},"data":[0,0,0,0,0,0,0,0,0,0,0,0,0,0,0,0,0,0,0,0,0,0,0,0,0,0,0,0,0,0,0,0,0,0,0,0,0,0,0,0,0,0,0,0,0,0,0,0,0,0,0,0,0,0,0,0,0,0,3.8586,3.8588,0,3.8822,3.8825,3.8828,3.8851,3.8848,3.8846,3.8843,3.9085,3.9094,3.9103,0,0,0,0,0,0,0,0,0,0,0,0,0,3.8154,3.8162,3.8586,3.8589,3.8592,3.8822,3.8825,3.8828,3.8851,3.8848,3.8845,3.8842,3.9083,3.9093,3.9103,0,0,0,0,0,0,0,0,0,0,0,0,0,3.8361,3.8164,3.8585,3.8631,3.8637,3.8821,3.8825,3.8829,3.8852,3.8848,3.8844,3.8841,3.9079,3.9092,3.9105,3.926,0,0,3.9145,3.9151,0,0,0,0,0,0,0,0,3.8349,3.8377,3.8621,3.8628,3.8635,3.8803,3.8762,3.8974,3.8853,3.877,3.8843,3.8839,3.8995,3.9014,3.9067,3.9271,3.9282,3.9146,3.9154,3.916,3.9163,0,0,0,0,0,0,0,3.8335,3.8367,3.8679,3.8625,3.8633,3.8639,3.8665,3.8802,3.89,3.8777,3.8779,3.8807,3.8998,3.9054,3.9073,3.9285,3.9146,3.9157,3.9165,3.9171,3.963,3.9634,0,0,0,0,0,0,3.8312,3.8355,3.8672,3.8686,3.848,3.865,3.8678,3.8753,3.8899,3.8917,3.881,3.8807,3.9034,3.9057,3.9081,3.9274,3.916,3.9172,3.9179,3.9626,3.9631,3.9636,0,0,0,0,0,0,3.8303,3.834,3.8662,3.8521,3.8563,3.8661,3.8745,3.876,3.8816,3.8924,3.8941,3.885,3.9032,3.9063,3.9216,3.9283,3.9178,3.919,3.9621,3.9627,3.9633,3.9659,0,0,0,0,0,0,3.829,3.8337,3.8397,3.8523,3.857,3.8793,3.8749,3.8767,3.8839,3.8837,3.8965,3.8983,3.9031,3.9196,3.9229,3.9299,3.92,3.9615,3.9624,3.9631,3.9653,3.9666,3.9677,0,0,0,0,0,3.8275,3.8394,3.8399,3.8438,3.8647,3.8796,3.8824,3.8877,3.8844,3.8905,3.8974,3.8979,3.9269,3.9211,3.9248,3.9324,3.9611,3.9621,3.9631,3.9648,3.9663,3.9677,0,0,0,0,0,0,3.8273,3.8411,3.8419,3.8583,3.8678,3.88,3.8879,3.8891,3.8998,3.8992,3.9053,3.9082,3.9233,3.9293,3.9226,3.9482,3.9437,3.9455,3.9437,3.9453,3.9465,3.9448,3.9211,0,0,0,0,0,3.8292,3.8402,3.8516,3.865,3.8697,3.878,3.8847,3.8879,3.898,3.902,3.9101,3.9198,3.9312,3.9385,3.9496,3.9661,3.969,3.9731,3.9743,3.9752,3.9767,3.9861,3.9881,3.9668,3.9668,3.9667,0,0,3.8332,3.8421,3.8486,3.8652,3.8729,3.8842,3.8813,3.8933,3.9018,3.9039,3.9189,3.9251,3.9364,3.9524,3.9598,3.9579,3.9833,3.9765,3.9771,3.9782,3.9873,3.9893,3.9911,3.9674,3.9673,3.9672,0,0,3.8463,3.854,3.8661,3.8739,3.8857,3.8911,3.894,3.9061,3.9103,3.9254,3.9273,3.9373,3.9567,3.9648,3.9714,3.9875,3.9884,3.9909,3.9973,4.0063,4.008,4.0095,4.0155,4.0175,3.9923,3.9923,3.9924,0,3.8497,3.8668,3.8721,3.8842,3.8914,3.8938,3.9061,3.9134,3.9282,3.9331,3.9307,3.9552,3.9629,3.9809,3.9849,3.9901,3.9937,3.9896,4.0073,4.0089,4.0104,4.0162,4.0184,3.9926,3.9926,3.9925,3.9925,0,3.8706,3.8824,3.8907,3.905,3.9132,3.9252,3.9324,3.94,3.9425,3.9482,3.9636,3.973,3.9861,3.9905,3.993,4.009,4.0074,4.0061,4.0017,4.0126,4.0181,4.0203,3.9929,3.9929,3.9928,3.9927,0,0,3.8844,3.9014,3.9044,3.911,3.9242,3.9334,3.9456,3.9584,3.9649,3.9749,3.9854,4.0017,4.0006,4.0081,4.0116,4.0195,4.0319,4.0172,4.0176,4.0198,4.0502,4.0513,4.0537,4.0324,4.0329,4.0332,4.0493,0,3.8991,3.921,3.9261,3.9449,3.9559,3.9583,3.969,3.9782,3.9838,3.994,4.0002,4.0118,4.0093,4.0139,4.0218,4.0287,4.0381,4.0276,4.0424,4.0429,4.0397,4.0566,4.0577,4.0725,4.0515,4.0518,4.0521,0,3.9193,3.9299,3.9498,3.9616,3.9664,3.9759,3.9881,3.9978,4.0083,4.0118,4.0202,4.0229,4.0357,4.0305,4.0484,4.0411,4.0474,4.0517,4.0524,4.0542,4.0483,4.059,4.0773,4.0795,4.0555,4.0552,4.055,0,3.9276,3.9468,3.9613,3.9668,3.9809,3.9875,3.9937,4.0038,4.0112,4.0218,4.0267,4.0386,4.0452,4.0544,4.0602,4.0558,4.0776,4.0729,4.081,4.0809,4.0857,4.0854,4.1054,4.0894,4.0893,4.0893,4.0892,0,3.9436,3.9558,3.9652,3.9741,3.9878,3.9935,4.0069,4.0131,4.0221,4.0323,4.035,4.0444,4.0514,4.0619,4.0665,4.0807,4.0836,4.0869,4.088,4.0868,4.0864,4.0912,4.0904,4.0899,4.0898,4.0896,4.0895,0,3.9553,3.9621,3.9781,3.9901,3.9934,4.003,4.0133,4.0221,4.0277,4.0405,4.0439,4.0527,4.0652,4.0718,4.0874,4.0905,4.1065,4.1069,4.103,4.1035,4.1113,4.1106,4.1354,4.139,4.1203,4.1204,4.1206,0,3.9652,3.9747,3.9877,3.9948,4.0011,4.0123,4.0199,4.0259,4.0337,4.0464,4.0536,4.0662,4.0767,4.0965,4.1043,4.1163,4.1171,4.125,4.119,4.1175,4.1175,4.117,4.1181,4.1261,4.1263,4.1265,4.1266,0,3.9822,3.9851,3.9959,4.008,4.0169,4.0267,4.0363,4.0419,4.0495,4.0581,4.0709,4.079,4.0949,4.1075,4.12,4.1264,4.1278,4.1284,4.1309,4.1299,4.1273,4.1291,4.1061,4.1278,4.1277,4.1276,4.1276,4.1275,3.9935,4.002,4.0126,4.0246,4.0325,4.0414,4.0503,4.0571,4.0679,4.0814,4.0842,4.0977,4.1081,4.1251,4.1318,4.1425,4.141,4.1446,4.1456,4.1465,4.1469,4.1254,4.1448,4.1448,4.1448,4.1447,4.1447,0,4.0107,4.0177,4.0286,4.0421,4.0516,4.052,4.0627,4.0706,4.0825,4.0921,4.1023,4.1171,4.1292,4.138,4.1504,4.1573,4.1583,4.1604,4.1601,4.1616,4.1475,4.1441,4.1594,4.1594,4.1594,4.1594,4.1594,4.1594,4.0208,4.0354,4.0395,4.058,4.0649,4.0782,4.0843,4.0926,4.1003,4.1167,4.1268,4.1325,4.1418,4.1549,4.1661,4.1683,4.1729,4.175,4.1773,4.1641,4.1625,4.161,4.1579,4.1759,4.1759,4.1905,4.1907,4.1908]}]]